www.pogodaiklimat.ru

Погода и климат >> Архив погоды >> Япония >> Синдзё


ПОГОДА в Синдзё

  • Прогноз погоды в Синдзё
  • Монитор погоды в Синдзё

АРХИВ ПОГОДЫ в Синдзё

Время (UTC), дата Ветер
(напр.,м/с)
 
Видим.   Явления Облачность Т
(С)
Тd
(С)
f
(%)
Тe
(С)
Тes
(С)
Комфортность P
(гПа)
Po
(гПа)
Тmin
(С)
Tmax
(С)
R
(мм)
R24
(мм)
S
(см)
13 18.06 ЮЗ 1 20 км н/о +15.7 +14.4 92 +16 +16 1010.9 998.9
14 18.06 С 1 20 км н/о +15.7 +14.4 92 +17 +17 1010.9 998.9
15 18.06 штиль 0 20 км н/о +15.6 +14.7 94 +15 +15 1010.8 998.8
16 18.06 Ю 2 20 км н/о +15.2 +14.3 94 +15 +15 1010.6 998.5
17 18.06 З 1 16 км н/о +15.0 +14.5 97 +15 +15 1010.1 998.0
18 18.06 СЗ 1 600 м туман н/о +14.6 +14.6 100 +16 +16 1009.9 997.8
19 18.06 СВ 1 7000 м в посл. час туман н/о +14.7 +14.6 99 +16 +16 1009.6 997.5
20 18.06 ЮЗ 1 15 км н/о +14.9 +14.3 96 +15 +15 1010.0 997.9
21 18.06 Ю 1 7000 м дымка {туман} н/о +14.6 +14.1 97 +15 +15 1010.0 997.9
22 18.06 Ю 2 9000 м дымка н/о +15.2 +14.6 96 +15 +15 1009.7 997.7
23 18.06 ЮЗ 1 20 км н/о +16.7 +14.7 88 +18 +18 1009.1 997.1
00 19.06 З 1 20 км {туман} н/о +19.1 +15.4 79 +22 +22 комфорт 1008.7 996.8 +14.3
01 19.06 Ю 3 16 км слаб. дождь н/о +18.8 +16.2 85 +20 +20 1008.8 996.9
02 19.06 ЮВ 2 9000 м слаб. дождь н/о +18.2 +17.1 93 +19 +19 1009.2 997.3
03 19.06 ЮВ 2 9000 м слаб. дождь н/о +18.2 +16.9 92 +19 +19 1008.7 996.8
04 19.06 ЮЗ 1 8000 м слаб. дождь н/о +18.4 +17.3 93 +20 +20 1008.5 996.6
05 19.06 З 1 3800 м слаб. дождь н/о +17.7 +17.2 97 +19 +19 1008.0 996.1
06 19.06 ЮЗ 2 5000 м слаб. дождь н/о +17.8 +17.2 96 +18 +18 1007.8 995.9 11
07 19.06 З 2 16 км в посл. час дождь н/о +17.9 +16.9 94 +19 +19 1007.8 995.9
08 19.06 В 1 20 км н/о +17.9 +17.1 95 +19 +19 1007.4 995.5
09 19.06 Ю 1 20 км {дождь} н/о +17.9 +16.9 94 +19 +19 1007.3 995.4
10 19.06 В 1 20 км н/о +17.9 +17.1 95 +20 +20 1007.3 995.4
11 19.06 С 1 20 км н/о +17.6 +17.0 96 +19 +19 1007.6 995.7
12 19.06 ЮВ 2 20 км {дождь} н/о +17.3 +16.8 97 +18 +18 1008.0 996.1 +19.4 12
13 19.06 ЮВ 2 15 км н/о +17.0 +16.7 98 +17 +17 1007.7 995.8
14 19.06 В 1 13 км н/о +16.5 +16.2 98 +18 +18 1007.5 995.5
15 19.06 штиль 0 17 км н/о +16.3 +16.0 98 +16 +16 1007.5 995.5
16 19.06 ЮВ 1 13 км н/о +15.4 +15.3 99 +16 +16 1006.8 994.8
17 19.06 штиль 0 17 км н/о +15.6 +15.3 98 +15 +15 1006.8 994.8
18 19.06 Ю 1 13 км н/о +15.6 +15.5 99 +17 +17 1006.9 994.9
19 19.06 ЮВ 1 15 км н/о +15.2 +14.9 98 +16 +16 1007.1 995.1
20 19.06 штиль 0 18 км н/о +15.2 +14.9 98 +15 +15 1007.3 995.3
21 19.06 Ю 1 20 км н/о +16.1 +15.1 94 +17 +17 1007.1 995.1
22 19.06 штиль 0 20 км н/о +17.0 +15.4 90 +17 +17 1007.2 995.3
23 19.06 ЮЗ 1 20 км н/о +17.6 +15.8 89 +19 +19 1007.2 995.3
00 20.06 Ю 1 20 км н/о +18.2 +15.8 86 +20 +20 1007.6 995.7 +14.9
01 20.06 Ю 1 20 км н/о +19.1 +16.0 82 +22 +22 комфорт 1007.5 995.7
02 20.06 ЮВ 1 20 км н/о +21.8 +17.0 74 +26 +26 душно 1007.0 995.3
03 20.06 С 3 20 км н/о +21.9 +16.0 69 +26 +26 душно 1006.9 995.2
04 20.06 С 2 20 км н/о +24.2 +16.2 61 +28 +28 душно 1005.9 994.3
05 20.06 С 2 20 км н/о +25.2 +15.3 54 +28 +28 жарко 1005.4 993.9
06 20.06 З 3 20 км н/о +26.9 +14.7 47 +29 +29 жарко 1005.3 993.8
07 20.06 З 5 20 км н/о +26.2 +17.3 58 +30 +30 душно 1005.3 993.8
08 20.06 З 4 20 км н/о +24.6 +17.4 64 +29 +29 душно 1005.4 993.8
09 20.06 ЮЗ 3 20 км н/о +24.0 +17.3 66 +28 +28 душно 1005.8 994.2
10 20.06 З 3 20 км н/о +22.7 +17.6 73 +28 +28 душно 1006.5 994.8
11 20.06 ЮЗ 2 20 км н/о +21.0 +17.4 80 +26 +26 душно 1007.5 995.7
12 20.06 Ю 1 20 км н/о +18.7 +17.2 91 +21 +21 комфорт 1008.6 996.7 +27.4
13 20.06 штиль 0 19 км н/о +18.5 +17.2 92 +19 +19 1008.9 997.0
14 20.06 Ю 2 14 км н/о +18.2 +17.4 95 +19 +19 1009.0 997.1
15 20.06 ЮЗ 2 15 км н/о +18.3 +17.2 93 +20 +20 1009.3 997.4
16 20.06 ЮВ 1 13 км н/о +17.6 +16.8 95 +19 +19 1009.3 997.4
17 20.06 Ю 1 11 км н/о +16.7 +16.1 96 +18 +18 1009.4 997.4
18 20.06 С 1 10 км н/о +17.5 +17.0 97 +19 +19 1009.4 997.5
19 20.06 ЮЗ 1 12 км н/о +17.1 +16.1 94 +18 +18 1010.0 998.0
20 20.06 ЮВ 1 2800 м дымка н/о +16.9 +16.6 98 +18 +18 1010.0 998.0
21 20.06 ЮВ 1 5000 м дымка н/о +17.5 +17.0 97 +19 +19 1010.1 998.2
22 20.06 СЗ 1 6000 м дымка н/о +17.9 +16.9 94 +19 +19 1010.2 998.3
23 20.06 С 2 8000 м дымка н/о +18.3 +17.2 93 +19 +19 1009.9 998.0
00 21.06 С 2 11 км н/о +20.2 +17.4 84 +24 +24 комфорт 1009.2 997.4 +16.7
01 21.06 С 2 17 км н/о +22.9 +18.5 76 +29 +29 очень
душно
1008.7 997.0
02 21.06 СВ 2 20 км н/о +26.2 +18.4 62 +31 +31 очень
душно
1008.1 996.6
03 21.06 ЮВ 4 20 км н/о +26.1 +16.7 56 +30 +30 душно 1008.0 996.5
04 21.06 ЮВ 3 20 км н/о +26.5 +17.0 56 +30 +30 душно 1007.8 996.3
05 21.06 В 4 20 км н/о +24.9 +17.1 62 +29 +29 душно 1007.8 996.2
06 21.06 ЮВ 4 20 км н/о +25.5 +18.2 64 +30 +30 душно 1007.4 995.8
07 21.06 В 7 19 км н/о +24.3 +17.8 67 +28 +28 душно 1007.1 995.5
08 21.06 В 6 17 км н/о +23.6 +17.6 69 +28 +28 душно 1007.2 995.6
09 21.06 В 7 13 км н/о +22.8 +17.7 73 +28 +28 душно 1007.7 996.0
10 21.06 ЮВ 5 13 км н/о +21.5 +17.5 78 +26 +26 душно 1008.3 996.6
11 21.06 ЮВ 4 15 км н/о +21.3 +17.5 79 +25 +25 комфорт 1008.6 996.8
12 21.06 В 3 12 км в посл. час дождь н/о +20.7 +17.7 83 +25 +25 комфорт 1008.8 997.0 +27.3 0.0
13 21.06 ЮВ 4 20 км н/о +20.6 +17.8 84 +24 +24 комфорт 1009.0 997.2
15 21.06 В 4 20 км н/о +21.2 +17.8 81 +25 +25 комфорт 1008.0 996.2
16 21.06 ЮВ 4 20 км н/о +21.2 +18.0 82 +25 +25 комфорт 1007.7 995.9
17 21.06 Ю 2 7000 м слаб. дождь н/о +20.3 +18.6 90 +24 +24 комфорт 1007.6 995.8
18 21.06 ЮВ 2 18 км слаб. дождь н/о +20.3 +18.4 89 +24 +24 комфорт 1007.6 995.8 0.5
19 21.06 С 2 7000 м в посл. час дождь н/о +19.4 +18.6 95 +22 +22 комфорт 1008.1 996.3
20 21.06 СВ 1 7000 м дымка н/о +19.2 +18.6 96 +23 +23 комфорт 1007.8 996.0
21 21.06 С 1 8000 м дымка {дождь} н/о +19.5 +18.7 95 +24 +24 комфорт 1007.5 995.7
22 21.06 С 1 11 км н/о +20.3 +18.6 90 +25 +25 комфорт 1007.0 995.2
23 21.06 ЮЗ 1 12 км слаб. дождь н/о +21.5 +18.7 84 +26 +26 душно 1006.7 995.0
00 22.06 ЮВ 1 20 км в посл. час дождь н/о +22.4 +18.2 77 +28 +28 душно 1006.6 994.9 +19.2 0.5
01 22.06 ЮВ 4 20 км н/о +23.2 +17.9 72 +29 +29 душно 1006.1 994.5
02 22.06 ЮВ 5 20 км н/о +25.6 +17.5 61 +30 +30 душно 1005.2 993.7
03 22.06 В 4 20 км н/о +25.2 +18.2 65 +30 +30 душно 1005.0 993.5
04 22.06 В 5 20 км н/о +24.9 +17.9 65 +29 +29 душно 1004.6 993.0
05 22.06 В 5 20 км в посл. час дождь н/о +23.9 +17.6 68 +28 +28 душно 1003.9 992.3
06 22.06 В 6 20 км {дождь} н/о +24.3 +17.8 67 +28 +28 душно 1003.2 991.6 0.0
07 22.06 ЮВ 5 20 км слаб. дождь н/о +22.2 +17.8 76 +27 +27 душно 1003.7 992.0
08 22.06 ЮВ 2 7000 м слаб. дождь н/о +20.7 +18.5 87 +25 +25 комфорт 1004.4 992.7
09 22.06 ЮЗ 3 3400 м слаб. дождь н/о +19.7 +19.1 96 +23 +23 комфорт 1005.6 993.8
10 22.06 ЮВ 2 5000 м слаб. дождь н/о +19.3 +18.8 97 +22 +22 комфорт 1005.3 993.5
11 22.06 ЮЗ 2 20 км в посл. час дождь н/о +19.2 +18.4 95 +22 +22 комфорт 1004.9 993.1
12 22.06 В 1 16 км {дождь} н/о +18.5 +18.2 98 +20 +20 1005.2 993.4 +26.9 22
13 22.06 СВ 1 16 км н/о +18.1 +17.8 98 +20 +20 1005.6 993.7
14 22.06 Ю 3 20 км н/о +18.5 +18.0 97 +20 +20 1005.2 993.4
15 22.06 Ю 2 20 км н/о +18.0 +17.5 97 +19 +19 1004.7 992.8
16 22.06 З 1 9000 м дымка н/о +17.9 +17.7 99 +20 +20 1004.9 993.0
17 22.06 В 2 15 км н/о +18.1 +17.8 98 +19 +19 1004.8 992.9
18 22.06 З 2 15 км в посл. час дождь н/о +18.2 +17.9 98 +19 +19 1005.0 993.1 0.0
19 22.06 Ю 1 20 км н/о +18.2 +17.7 97 +20 +20 1005.2 993.3
20 22.06 ЮВ 1 20 км н/о +17.9 +17.6 98 +19 +19 1005.5 993.6
21 22.06 штиль 0 20 км н/о +18.5 +18.0 97 +19 +19 1005.7 993.8
22 22.06 ЮЗ 2 20 км н/о +19.0 +17.7 92 +21 +21 комфорт 1005.8 994.0
23 22.06 З 3 20 км н/о +20.6 +18.4 87 +25 +25 комфорт 1006.1 994.3
00 23.06 С 2 20 км н/о +21.4 +18.2 82 +26 +26 душно 1005.6 993.9 +17.6 0.0
01 23.06 С 2 20 км н/о +23.2 +18.1 73 +29 +29 душно 1005.4 993.8
02 23.06 С 2 20 км н/о +23.4 +17.9 71 +29 +29 душно 1005.3 993.7
03 23.06 З 2 20 км в посл. час дождь н/о +25.2 +17.9 64 +30 +30 душно 1004.8 993.3
04 23.06 З 4 20 км н/о +25.0 +17.5 63 +29 +29 душно 1004.5 993.0
05 23.06 СЗ 3 20 км н/о +25.8 +17.2 59 +30 +30 душно 1004.4 992.9
06 23.06 СЗ 3 20 км {дождь} н/о +26.4 +17.5 58 +31 +31 душно 1004.1 992.6 0.0
07 23.06 СЗ 3 20 км н/о +26.1 +17.7 60 +30 +30 душно 1003.9 992.4
08 23.06 З 6 20 км н/о +23.9 +17.6 68 +28 +28 душно 1004.5 992.9
09 23.06 З 4 20 км н/о +23.0 +17.0 69 +28 +28 душно 1005.5 993.9
10 23.06 ЮЗ 3 20 км н/о +22.0 +17.0 73 +26 +26 душно 1006.3 994.6
11 23.06 СЗ 3 20 км н/о +21.7 +16.2 71 +25 +25 комфорт 1006.9 995.2
12 23.06 СЗ 2 17 км слаб. дождь н/о +20.8 +16.8 78 +25 +25 комфорт 1007.7 995.9 +26.7 0.0
13 23.06 Ю 1 20 км в посл. час дождь н/о +19.9 +18.0 89 +24 +24 комфорт 1008.2 996.4
14 23.06 ЮВ 1 20 км н/о +19.2 +17.9 92 +22 +22 комфорт 1008.4 996.5
15 23.06 Ю 1 20 км {дождь} н/о +19.2 +17.5 90 +22 +22 комфорт 1008.5 996.6
16 23.06 ЮВ 2 20 км н/о +19.0 +17.3 90 +21 +21 комфорт 1008.5 996.6
17 23.06 ЮВ 2 20 км н/о +19.0 +17.3 90 +21 +21 комфорт 1008.5 996.6
18 23.06 ЮВ 3 20 км {дождь} н/о +19.0 +16.8 87 +21 +21 комфорт 1008.8 996.9 0.0
19 23.06 Ю 2 20 км н/о +18.8 +16.6 87 +20 +20 1009.1 997.2
20 23.06 ЮВ 3 20 км н/о +18.5 +16.5 88 +20 +20 1009.2 997.3
21 23.06 ЮВ 3 20 км н/о +19.0 +16.1 83 +21 +21 комфорт 1009.8 997.9
22 23.06 ЮВ 3 20 км н/о +19.2 +15.7 80 +21 +21 комфорт 1010.0 998.1
23 23.06 ЮВ 3 20 км н/о +19.7 +15.6 77 +22 +22 комфорт 1010.3 998.4
00 24.06 ЮВ 3 20 км н/о +19.5 +15.6 78 +22 +22 комфорт 1010.6 998.7 +18.2 0.0
01 24.06 В 4 20 км н/о +20.5 +15.5 73 +23 +23 комфорт 1010.5 998.7
02 24.06 В 4 20 км н/о +19.9 +15.6 76 +22 +22 комфорт 1011.0 999.1
03 24.06 ЮВ 4 20 км в посл. час дождь н/о +19.9 +16.0 78 +22 +22 комфорт 1010.6 998.8
04 24.06 ЮВ 4 20 км в посл. час дождь н/о +19.7 +16.0 79 +22 +22 комфорт 1011.3 999.4
05 24.06 ЮВ 3 20 км слаб. дождь н/о +18.8 +16.2 85 +20 +20 1011.5 999.6
06 24.06 ЮВ 3 20 км в посл. час дождь н/о +19.4 +16.5 83 +22 +22 комфорт 1011.5 999.6 0.5
07 24.06 ЮВ 3 20 км слаб. дождь н/о +19.1 +16.2 83 +21 +21 комфорт 1011.7 999.8
08 24.06 В 1 20 км слаб. дождь н/о +18.4 +17.3 93 +21 +21 комфорт 1012.0 1000.1
09 24.06 СВ 2 19 км слаб. дождь н/о +18.3 +17.8 97 +20 +20 1012.6 1000.7
10 24.06 З 2 17 км слаб. дождь н/о +18.1 +17.3 95 +19 +19 1013.0 1001.0
11 24.06 ЮЗ 2 8000 м слаб. дождь н/о +18.0 +17.4 96 +19 +19 1013.8 1001.8
12 24.06 штиль 0 6000 м слаб. дождь н/о +17.8 +17.5 98 +18 +18 1014.2 1002.2 +20.7 7
13 24.06 Ю 1 11 км слаб. дождь н/о +17.8 +17.5 98 +19 +19 1014.3 1002.3
14 24.06 ЮВ 1 18 км слаб. дождь н/о +17.5 +17.0 97 +19 +19 1014.6 1002.6
15 24.06 ЮВ 1 20 км в посл. час дождь н/о +17.5 +17.2 98 +19 +19 1014.8 1002.8
16 24.06 ЮЗ 2 20 км в посл. час дождь н/о +17.6 +17.3 98 +18 +18 1014.6 1002.6
17 24.06 СЗ 1 20 км в посл. час дождь н/о +17.4 +17.3 99 +19 +19 1015.2 1003.2
19 24.06 ЮЗ 2 15 км н/о +17.4 +17.1 98 +18 +18 1016.3 1004.3
20 24.06 С 1 14 км н/о +17.4 +17.4 100 +18 +18 1016.9 1004.9
21 24.06 ЮЗ 1 20 км н/о +17.0 +16.5 97 +18 +18 1017.4 1005.3
22 24.06 Ю 1 20 км н/о +17.8 +16.3 91 +19 +19 1017.6 1005.6
23 24.06 ЮЗ 1 20 км н/о +18.9 +16.7 87 +22 +22 комфорт 1018.0 1006.0
00 25.06 СВ 2 20 км н/о +20.9 +17.3 80 +26 +26 душно 1017.8 1005.9 +16.8 5
01 25.06 С 2 20 км н/о +21.8 +16.3 71 +26 +26 душно 1017.6 1005.8
02 25.06 СЗ 3 20 км н/о +23.1 +16.9 68 +28 +28 душно 1017.3 1005.5
03 25.06 С 3 20 км н/о +24.0 +16.0 61 +27 +27 жарко 1016.9 1005.2
04 25.06 СЗ 3 20 км н/о +24.1 +15.6 59 +27 +27 жарко 1016.4 1004.7
05 25.06 С 2 20 км н/о +24.4 +16.7 62 +28 +28 душно 1015.9 1004.2
06 25.06 С 2 20 км н/о +25.0 +15.6 56 +28 +28 жарко 1015.9 1004.2
07 25.06 З 3 20 км н/о +26.4 +16.9 56 +30 +30 душно 1015.4 1003.8
08 25.06 З 4 20 км н/о +25.6 +18.0 63 +30 +30 душно 1015.5 1003.9
09 25.06 З 3 20 км н/о +24.7 +16.9 62 +28 +28 душно 1015.6 1003.9
10 25.06 З 2 20 км н/о +23.0 +17.2 70 +28 +28 душно 1016.4 1004.6
11 25.06 ЮВ 2 20 км н/о +19.7 +17.7 88 +23 +23 комфорт 1016.6 1004.7
12 25.06 Ю 3 20 км н/о +19.9 +17.3 85 +23 +23 комфорт 1017.3 1005.4 +27.1

 

Местоположение метеостанции Синдзё (Япония): широта 38.75 долгота 140.31 высота над уровнем моря 102 м.

В архиве по умолчанию представлена погода в Синдзё за последнюю неделю. Архивные данные за месяц целиком и за предыдущие месяцы, начиная с января 2011 года, Вы можете получить, выбрав интересующий диапазон дат из раскрывающегося списка и нажав кнопку "Ввод!".


*Определитесь, кто Вы:
робот инопланетянин человек

Внимание! Время в таблицах - всемирное. Для получения местного времени необходимо прибавить поправку, которая равна 9 ч.

Смотрите также архив погоды в соседних городах и на ближайших метеорологических станциях:

Погода в Сакате (Япония) (44 км)
Погода в Ямаге (Япония) (56 км)
Погода в Сендае (Япония) (74 км)
Погода в Исиномаки (Япония) (93 км)
Погода в Аките (Япония) (109 км)
Погода в Фукусиме (Япония) (110 км)
Погода в Офунато (Япония) (126 км)
Погода в Мориоке (Япония) (129 км)
Погода в Ниигате (Япония) (144 км)
Погода в Вакамацу (Япония) (146 км)

Пояснения к столбцам:

Ветер - указаны скорость ветра в м/с - средняя за 10 мин, порывы в срок и между сроками (в фигурных скобках) и направление, откуда дует ветер: С - северный, СВ - северо-восточный, В - восточный, ЮВ - юго-восточный, Ю - южный, ЮЗ - юго-западный, З - западный, СЗ - северо-западный.
Видимость - горизонтальная дальность видимости в метрах или километрах. При видимости от 1 до 10 км при отсутствии осадков обычно наблюдается дымка, при ухудшении видимости до 1 км и менее - туман. В сухую погоду видимость может ухудшаться дымом, пылью или мглою.
Явления - указаны атмосферные явления, наблюдавшиеся в срок или в последний час перед сроком; фигурными скобками обозначены явления, наблюдавшиеся между сроками (за 1-3 часа до срока); квадратными скобками обозначены град или гололедные отложения с указанием их диаметра в мм.
Облачность - указаны через наклонную черту общая и нижняя облачность в баллах и высота нижней границы облаков в метрах; квадратными скобками обозначены формы облаков: Ci - перистые, Cs - перисто-слоистые, Cc - перисто-кучевые, Ac - высококучевые, As - высокослоистые, Sc - слоисто-кучевые, Ns - слоисто-дождевые, Cu - кучевые, Cb - кучево-дождевые. Подробнее классификацию облаков см. в Атласе облаков (PDF).
T - Температура воздуха - температура, измеренная на высоте 2 м над землей.
Td - Температура точки росы - температура, при понижении до которой содержащийся в воздухе водяной пар достигнет насыщения.
f - Относительная влажность воздуха - влажноcть воздуха, измеренная на высоте 2 м над землей.
Te - Эффективная температура - температура, которую ощущает одетый по сезону человек в тени. Характеристика душности погоды. При расчете учитывается влияние влажности воздуха и скорости ветра на теплоощущения человека.
Tes - Эффективная температура на солнце - температура, которую ощущает человек, с поправкой на солнечный нагрев. Характеристика знойности погоды. Зависит от высоты солнца над горизонтом, облачности и скорости ветра. Ночью, в пасмурную погоду, а также при ветре 12 м/с и более поправка равна нулю.
P - Атмосферное давление - приведенное к уровню моря атмосферное давление.
Po - Атмосферное давление - измеренное на уровне метеостанции атмосферное давление.
Tmin - Минимальная температура - минимум температуры воздуха на высоте 2 м над землей.
Tmax - Максимальная температура - максимум температуры воздуха на высоте 2 м над землей.
R - Количество осадков - Количество выпавших осадков за период времени, мм. При наведении курсора мыши на число - период времени, за который выпало указанное количество осадков.
R24 - Количество осадков - Количество выпавших осадков за 24 часа, мм.
S - Снежный покров - Высота снежного покрова, см. При наведении курсора мыши на число - состояние снежного покрова и степень покрытия местности в баллах.